1501178400.45,58685,19.25,73526.5,3.11,1.93,2.01,0,*70
1501178401.69,58686,19.25,73528.8,3.11,1.93,1.93,0,*7B
1501178402.94,58687,19.31,73530.3,3.11,1.93,1.93,0,*7A
1501178404.18,58688,19.25,73524.3,3.11,1.93,1.93,0,*75
1501178405.43,58689,19.25,73526.0,3.11,2.01,1.93,0,*7C
1501178406.65,58690,19.25,73530.0,3.09,1.93,2.01,0,*7D
1501178407.9,58691,19.25,73530.0,3.11,1.93,1.93,0,*7D
1501178409.11,58692,19.25,73530.0,3.09,1.93,1.89,0,*7C
1501178410.35,58693,19.25,73528.0,3.11,1.89,1.93,0,*74
1501178411.57,58694,19.25,73528.3,3.11,1.89,1.83,0,*72
1501178412.79,58695,19.25,73526.3,3.09,1.89,1.89,0,*70
1501178414.0,58696,19.25,73526.5,3.09,1.89,1.89,0,*73
1501178415.22,58697,19.25,73528.0,3.09,1.93,1.89,0,*79
1501178416.43,58698,19.25,73524.0,3.09,1.93,1.89,0,*76
1501178417.65,58699,19.31,73530.3,3.09,1.93,1.89,0,*77
1501178418.87,58700,19.25,73526.3,3.09,1.93,1.93,0,*7D
1501178420.08,58701,19.25,73528.5,3.09,1.93,1.93,0,*7C
1501178421.28,58702,19.25,73526.5,3.09,1.83,1.89,0,*75
1501178422.49,58703,19.25,73526.8,3.09,1.89,1.89,0,*7E
1501178423.7,58704,19.25,73526.0,3.09,1.89,1.89,0,*79
1501178424.94,58705,19.25,73526.5,3.05,1.85,1.85,0,*74
1501178426.19,58706,19.25,73526.8,3.07,1.85,1.89,0,*79
1501178427.42,58707,19.25,73528.0,3.05,1.85,1.85,0,*76
1501178428.66,58708,19.25,73526.0,3.07,1.85,1.79,0,*78
1501178429.89,58709,19.25,73526.5,3.05,1.85,1.85,0,*78
1501178431.15,58710,19.25,73526.5,3.07,1.89,1.85,0,*7E
1501178432.4,58711,19.25,73524.3,3.07,1.89,1.85,0,*7F
1501178433.63,58712,19.25,73528.0,3.05,1.85,1.85,0,*72
1501178434.87,58713,19.25,73524.5,3.05,1.85,1.85,0,*73
1501178436.08,58714,19.25,73530.3,3.05,1.85,1.79,0,*77
1501178437.31,58715,19.25,73526.8,3.05,1.89,1.85,0,*79
1501178438.49,58716,19.25,73526.5,3.05,1.79,1.79,0,*76
1501178439.7,58717,19.25,73530.0,3.05,1.85,1.79,0,*74
1501178440.93,58718,19.25,73526.8,3.01,1.71,1.71,0,*7C
1501178442.1,58719,19.25,73526.5,3.01,1.79,1.79,0,*7D
1501178443.3,58720,19.25,73526.0,3.01,1.79,1.71,0,*7F
1501178444.51,58721,19.25,73526.8,2.97,1.83,1.79,0,*7D
1501178445.76,58722,19.25,73528.0,2.97,1.71,1.71,0,*7B
1501178446.96,58723,19.25,73526.0,3.01,1.71,1.79,0,*7C
1501178448.16,58724,19.25,73526.3,3.01,1.79,1.71,0,*7B
1501178449.39,58725,19.25,73520.5,2.97,1.71,1.79,0,*74
1501178450.62,58726,19.25,73528.0,2.97,1.79,1.71,0,*77
1501178451.87,58727,19.25,73526.0,2.97,1.71,1.71,0,*7E
1501178453.12,58728,19.25,73526.8,2.97,1.71,1.67,0,*76
1501178454.37,58729,19.25,73524.5,2.97,1.71,1.67,0,*77
1501178455.63,58730,19.25,73526.0,2.97,1.71,1.67,0,*7F
1501178456.84,58731,19.25,73526.3,2.95,1.67,1.67,0,*7B
1501178458.06,58732,19.25,73526.0,2.95,1.67,1.67,0,*78
1501178459.28,58733,19.25,73526.0,2.95,1.67,1.67,0,*79
1501178460.5,58734,19.25,73528.0,2.95,1.67,1.67,0,*7E
1501178461.72,58735,19.25,73526.5,2.95,1.67,1.63,0,*7B
1501178462.94,58736,19.25,73530.0,2.95,1.63,1.63,0,*7C
1501178464.16,58737,19.25,73526.8,2.95,1.67,1.63,0,*79
1501178465.41,58738,19.25,73526.8,2.93,1.63,1.55,0,*71
1501178466.63,58739,19.31,73530.3,2.95,1.67,1.63,0,*77
1501178467.88,58740,19.31,73528.3,2.93,1.63,1.63,0,*7B
1501178469.1,58741,19.25,73526.3,2.91,1.59,1.59,0,*78
1501178470.34,58742,19.25,73526.0,2.93,1.67,1.63,0,*7D
1501178471.56,58743,19.25,73524.5,2.91,1.59,1.59,0,*7A
1501178472.78,58744,19.25,73526.0,2.91,1.59,1.59,0,*7D
1501178474.0,58745,19.25,73528.8,2.91,1.59,1.59,0,*7C
1501178475.22,58746,19.31,73528.0,2.91,1.51,1.59,0,*77
1501178476.48,58747,19.25,73524.3,2.89,1.55,1.55,0,*77
1501178477.7,58748,19.25,73526.8,2.91,1.63,1.59,0,*78
1501178478.96,58749,19.25,73524.3,2.89,1.55,1.55,0,*79
1501178480.18,58750,19.25,73524.0,2.91,1.59,1.59,0,*78
1501178481.43,58751,19.25,73524.0,2.89,1.55,1.55,0,*70
1501178482.66,58752,19.25,73524.5,2.91,1.63,1.59,0,*73
1501178483.88,58753,19.31,73530.3,2.91,1.63,1.59,0,*72
1501178485.13,58754,19.25,73520.5,2.89,1.59,1.55,0,*79
1501178486.38,58755,19.25,73526.0,2.89,1.55,1.59,0,*78
1501178487.63,58756,19.25,73524.0,2.89,1.59,1.59,0,*77
1501178488.88,58757,19.25,73526.3,2.89,1.59,1.55,0,*7A
1501178490.13,58758,19.25,73526.8,2.89,1.59,1.55,0,*75
1501178491.38,58759,19.25,73524.8,2.89,1.59,1.59,0,*78
1501178492.62,58760,19.31,73530.8,2.89,1.59,1.59,0,*72
1501178493.88,58761,19.25,73528.8,2.89,1.55,1.55,0,*73
1501178495.11,58762,19.31,73528.3,2.87,1.55,1.55,0,*7E
1501178496.34,58763,19.25,73528.5,2.87,1.55,1.67,0,*7E
1501178497.57,58764,19.25,73528.0,2.87,1.55,1.55,0,*78
1501178498.79,58765,19.31,73528.0,2.87,1.59,1.59,0,*79
1501178500.04,58766,19.25,73530.5,2.85,1.63,1.55,0,*7D
1501178501.26,58767,19.25,73526.8,2.87,1.67,1.59,0,*76
1501178502.52,58768,19.31,73528.8,2.85,1.63,1.55,0,*73
1501178503.77,58769,19.25,73528.8,2.85,1.63,1.55,0,*72
1501178504.99,58770,19.25,73526.0,2.87,1.67,1.59,0,*70
1501178506.24,58771,19.25,73526.8,2.85,1.63,1.55,0,*7B
1501178507.5,58772,19.25,73524.5,2.85,1.63,1.51,0,*7C
1501178508.72,58773,19.25,73528.3,2.87,1.59,1.67,0,*73
1501178509.97,58774,19.31,73528.5,2.85,1.55,1.63,0,*7E
1501178511.23,58775,19.25,73528.3,2.85,1.55,1.55,0,*7A
1501178512.46,58776,19.25,73524.5,2.83,1.55,1.55,0,*7F
1501178513.69,58777,19.25,73528.0,2.83,1.63,1.55,0,*7B
1501178514.92,58778,19.25,73526.8,2.83,1.55,1.55,0,*71
1501178516.18,58779,19.25,73524.5,2.85,1.55,1.55,0,*76
1501178517.43,58780,19.25,73528.0,2.85,1.55,1.55,0,*70
1501178518.69,58781,19.25,73526.3,2.81,1.51,1.51,0,*75
1501178519.94,58782,19.25,73526.3,2.81,1.51,1.51,0,*76
1501178521.2,58783,19.25,73530.3,2.81,1.51,1.51,0,*77
1501178522.43,58784,19.25,73526.8,2.83,1.55,1.55,0,*72
1501178523.68,58785,19.25,73528.8,2.81,1.47,1.47,0,*71
1501178524.93,58786,19.25,73528.8,2.81,1.51,1.47,0,*75
1501178526.18,58787,19.25,73524.5,2.81,1.59,1.47,0,*7C
1501178527.43,58788,19.25,73528.0,2.81,1.51,1.47,0,*7B
1501178528.66,58789,19.25,73526.8,2.83,1.63,1.55,0,*7A
1501178529.91,58790,19.25,73526.3,2.81,1.51,1.51,0,*75
1501178531.17,58791,19.25,73530.5,2.81,1.51,1.51,0,*74
1501178532.42,58792,19.25,73526.0,2.81,1.47,1.47,0,*77
1501178533.67,58793,19.25,73528.0,2.81,1.51,1.47,0,*71
1501178534.92,58794,19.25,73524.8,2.81,1.51,1.51,0,*71
1501178536.17,58795,19.25,73524.8,2.81,1.51,1.51,0,*70
1501178537.43,58796,19.25,73528.8,2.81,1.51,1.51,0,*73
1501178538.68,58797,19.25,73526.0,2.81,1.51,1.51,0,*72
1501178539.91,58798,19.25,73528.0,2.79,1.59,1.59,0,*7A
1501178541.13,58799,19.31,73528.0,2.79,1.51,1.59,0,*73
1501178542.35,58800,19.25,73524.8,2.79,1.51,1.51,0,*74
1501178543.58,58801,19.25,73526.8,2.79,1.59,1.47,0,*7A
1501178544.81,58802,19.25,73524.8,2.75,1.47,1.55,0,*79
1501178546.03,58803,19.25,73526.3,2.79,1.59,1.51,0,*7F
1501178547.26,58804,19.31,73528.8,2.75,1.47,1.47,0,*7C
1501178548.49,58805,19.31,73530.3,2.75,1.55,1.55,0,*7D
1501178549.72,58806,19.25,73526.8,2.75,1.47,1.55,0,*7D
1501178550.94,58807,19.25,73526.0,2.79,1.51,1.59,0,*7B
1501178552.18,58808,19.25,73526.8,2.75,1.55,1.55,0,*70
1501178553.41,58809,19.25,73526.8,2.75,1.55,1.47,0,*72
1501178554.64,58810,19.31,73526.8,2.75,1.55,1.47,0,*7A
1501178555.89,58811,19.25,73526.3,2.73,1.51,1.51,0,*7E
1501178557.12,58812,19.25,73526.0,2.75,1.67,1.59,0,*76
1501178558.34,58813,19.25,73524.0,2.75,1.59,1.55,0,*76
1501178559.57,58814,19.25,73526.3,2.75,1.59,1.47,0,*72
1501178560.8,58815,19.25,73530.3,2.75,1.55,1.47,0,*7F
1501178562.03,58816,19.25,73528.3,2.75,1.59,1.55,0,*73
1501178563.25,58817,19.25,73524.3,2.75,1.59,1.55,0,*72
1501178564.48,58818,19.25,73526.3,2.75,1.59,1.59,0,*71
1501178565.71,58819,19.25,73526.3,2.75,1.55,1.59,0,*7C
1501178566.94,58820,19.31,73528.0,2.75,1.55,1.47,0,*79
1501178568.19,58821,19.25,73524.3,2.73,1.51,1.51,0,*7D
1501178569.45,58822,19.31,73530.8,2.73,1.55,1.43,0,*79
1501178570.7,58823,19.25,73528.5,2.73,1.51,1.51,0,*7F
1501178571.96,58824,19.25,73524.8,2.73,1.51,1.51,0,*78
1501178573.22,58825,19.25,73526.3,2.73,1.55,1.51,0,*7D
1501178574.47,58826,19.25,73524.0,2.73,1.51,1.51,0,*7A
1501178575.7,58827,19.25,73524.5,2.71,1.43,1.51,0,*7A
1501178576.95,58828,19.25,73524.3,2.73,1.43,1.43,0,*74
1501178578.17,58829,19.25,73524.0,2.71,1.51,1.43,0,*74
1501178579.43,58830,19.25,73526.5,2.73,1.55,1.51,0,*79
1501178580.69,58831,19.25,73524.3,2.73,1.55,1.55,0,*7C
1501178581.91,58832,19.25,73528.5,2.71,1.43,1.51,0,*7E
1501178583.14,58833,19.25,73524.8,2.71,1.51,1.55,0,*78
1501178584.36,58834,19.25,73526.0,2.71,1.51,1.55,0,*7F
1501178585.59,58835,19.25,73526.0,2.71,1.43,1.55,0,*7D
1501178586.82,58836,19.25,73526.0,2.71,1.55,1.51,0,*7D
1501178588.05,58837,19.25,73526.8,2.71,1.63,1.55,0,*7D
1501178589.28,58838,19.25,73524.3,2.71,1.55,1.51,0,*73
1501178590.5,58839,19.25,73528.0,2.71,1.63,1.55,0,*73
1501178591.73,58840,19.25,73524.0,2.71,1.55,1.55,0,*78
1501178592.96,58841,19.25,73528.0,2.71,1.63,1.51,0,*78
1501178594.19,58842,19.25,73526.0,2.71,1.55,1.55,0,*7A
1501178595.42,58843,19.25,73526.5,2.71,1.55,1.63,0,*7E
1501178596.65,58844,19.25,73526.8,2.71,1.55,1.55,0,*7C
1501178597.88,58845,19.25,73526.8,2.71,1.55,1.55,0,*7D
1501178599.11,58846,19.25,73524.0,2.69,1.47,1.41,0,*71
1501178600.35,58847,19.25,73530.8,2.69,1.51,1.47,0,*71
1501178601.6,58848,19.25,73528.5,2.69,1.51,1.47,0,*7E
1501178602.83,58849,19.25,73524.5,2.71,1.55,1.63,0,*74
1501178604.08,58850,19.25,73524.5,2.69,1.47,1.47,0,*70
1501178605.33,58851,19.25,73528.3,2.69,1.51,1.47,0,*76
1501178606.58,58852,19.31,73530.8,2.69,1.51,1.47,0,*75
1501178607.83,58853,19.25,73528.0,2.69,1.47,1.47,0,*73
1501178609.07,58854,19.25,73526.5,2.69,1.47,1.47,0,*74
1501178610.32,58855,19.25,73528.8,2.67,1.47,1.47,0,*7B
1501178611.54,58856,19.25,73524.3,2.69,1.47,1.41,0,*70
1501178612.79,58857,19.25,73526.5,2.69,1.47,1.51,0,*70
1501178614.04,58858,19.31,73530.5,2.69,1.59,1.59,0,*78
1501178615.28,58859,19.25,73526.0,2.67,1.59,1.59,0,*77
1501178616.52,58860,19.25,73524.8,2.67,1.51,1.47,0,*7A
1501178617.77,58861,19.25,73528.0,2.67,1.51,1.47,0,*7B
1501178619.01,58862,19.25,73526.0,2.67,1.51,1.47,0,*78
1501178620.26,58863,19.25,73526.8,2.69,1.47,1.47,0,*70
1501178621.51,58864,19.25,73524.3,2.69,1.51,1.59,0,*7F
1501178622.75,58865,19.25,73524.5,2.67,1.51,1.47,0,*7F
1501178624.0,58866,19.31,73530.3,2.69,1.51,1.47,0,*72
1501178625.25,58867,19.25,73528.0,2.69,1.51,1.47,0,*73
1501178626.49,58868,19.25,73526.5,2.67,1.47,1.47,0,*75
1501178627.74,58869,19.25,73528.0,2.67,1.47,1.47,0,*74
1501178628.98,58870,19.25,73528.0,2.67,1.47,1.47,0,*7C
1501178630.23,58871,19.31,73530.8,2.67,1.51,1.47,0,*7A
1501178631.47,58872,19.25,73524.5,2.67,1.47,1.47,0,*7E
1501178632.71,58873,19.25,73526.5,2.67,1.47,1.47,0,*7F
1501178633.94,58874,19.25,73526.0,2.67,1.41,1.51,0,*79
1501178635.16,58875,19.25,73524.8,2.65,1.43,1.43,0,*7B
1501178636.38,58876,19.25,73528.8,2.65,1.47,1.47,0,*78
1501178637.62,58877,19.25,73526.3,2.67,1.51,1.47,0,*7C
1501178638.84,58878,19.25,73526.8,2.67,1.41,1.47,0,*72
1501178640.06,58879,19.31,73528.0,2.67,1.51,1.41,0,*74
1501178641.28,58880,19.25,73526.8,2.65,1.43,1.43,0,*71
1501178642.52,58881,19.25,73526.5,2.65,1.37,1.37,0,*70
1501178643.75,58882,19.25,73528.8,2.65,1.37,1.43,0,*70
1501178644.98,58883,19.25,73526.3,2.65,1.43,1.37,0,*71
1501178646.2,58884,19.25,73524.5,2.65,1.43,1.43,0,*75
1501178647.39,58885,19.25,73524.0,2.63,1.41,1.41,0,*72
1501178648.61,58886,19.25,73526.3,2.65,1.43,1.43,0,*77
1501178649.84,58887,19.25,73524.5,2.65,1.37,1.37,0,*76
1501178651.1,58888,19.25,73524.5,2.63,1.33,1.33,0,*7F
1501178652.33,58889,19.31,73530.3,2.63,1.33,1.41,0,*7B
1501178653.55,58890,19.25,73522.8,2.63,1.41,1.33,0,*73
1501178654.81,58891,19.25,73526.8,2.63,1.33,1.33,0,*77
1501178656.06,58892,19.25,73526.0,2.63,1.33,1.33,0,*74
1501178657.29,58893,19.25,73522.3,2.63,1.33,1.41,0,*70
1501178658.55,58894,19.25,73526.0,2.63,1.33,1.33,0,*72
1501178659.78,58895,19.25,73524.3,2.65,1.37,1.43,0,*76
1501178661.0,58896,19.25,73524.3,2.63,1.41,1.33,0,*75
1501178662.22,58897,19.25,73526.3,2.63,1.41,1.29,0,*7F
1501178663.45,58898,19.25,73524.8,2.63,1.33,1.41,0,*7B
1501178664.67,58899,19.25,73526.8,2.63,1.41,1.33,0,*7A
1501178665.91,58900,19.25,73526.8,2.61,1.33,1.33,0,*7C
1501178667.11,58901,19.25,73526.3,2.61,1.33,1.41,0,*78
1501178668.31,58902,19.25,73524.8,2.61,1.33,1.41,0,*7B
1501178669.56,58903,19.25,73524.0,2.59,1.29,1.29,0,*74
1501178670.82,58904,19.25,73524.8,2.59,1.37,1.29,0,*7C
1501178672.08,58905,19.25,73526.0,2.59,1.29,1.29,0,*72
1501178673.32,58906,19.25,73524.3,2.61,1.33,1.33,0,*7A
1501178674.55,58907,19.25,73524.8,2.61,1.33,1.33,0,*7B
1501178675.81,58908,19.25,73526.0,2.59,1.37,1.37,0,*7F
1501178677.07,58909,19.25,73526.3,2.59,1.29,1.29,0,*7E
1501178678.33,58910,19.25,73526.0,2.59,1.29,1.29,0,*76
1501178679.56,58911,19.25,73526.8,2.61,1.37,1.33,0,*78
1501178680.82,58912,19.25,73524.3,2.59,1.29,1.29,0,*74
1501178682.08,58913,19.25,73526.3,2.59,1.37,1.37,0,*75
1501178683.34,58914,19.25,73526.8,2.59,1.37,1.29,0,*7D
1501178684.6,58915,19.25,73526.8,2.59,1.37,1.29,0,*7C
1501178685.77,58916,19.25,73524.0,2.61,1.41,1.41,0,*7B
1501178687.03,58917,19.25,73524.8,2.59,1.37,1.37,0,*71
1501178688.22,58918,19.25,73524.8,2.57,1.47,1.41,0,*76
1501178689.39,58919,19.25,73526.3,2.57,1.41,1.41,0,*71
1501178690.58,58920,19.25,73524.8,2.59,1.41,1.41,0,*75
1501178691.83,58921,19.25,73524.3,2.59,1.47,1.37,0,*73
1501178693.03,58922,19.25,73524.5,2.59,1.41,1.41,0,*77
1501178694.26,58923,19.25,73528.0,2.59,1.37,1.41,0,*77
1501178695.45,58924,19.25,73524.3,2.57,1.41,1.29,0,*71
1501178696.69,58925,19.25,73526.5,2.57,1.37,1.37,0,*7E
1501178697.93,58926,19.25,73526.8,2.57,1.37,1.37,0,*7D
1501178699.16,58927,19.25,73524.0,2.57,1.37,1.37,0,*7C
1501178700.4,58928,19.25,73526.8,2.57,1.37,1.29,0,*7C
1501178701.63,58929,19.25,73524.3,2.57,1.37,1.29,0,*7D
1501178702.86,58930,19.31,73528.3,2.57,1.37,1.29,0,*75
1501178704.1,58931,19.25,73526.8,2.53,1.33,1.25,0,*78
1501178705.33,58932,19.25,73524.8,2.57,1.33,1.29,0,*73
1501178706.56,58933,19.25,73524.5,2.53,1.33,1.25,0,*7A
1501178707.8,58934,19.31,73528.5,2.57,1.29,1.37,0,*71
1501178709.04,58935,19.25,73528.0,2.57,1.37,1.37,0,*7F
1501178710.27,58936,19.25,73524.3,2.53,1.37,1.33,0,*7C
1501178711.47,58937,19.25,73524.3,2.57,1.41,1.29,0,*73
1501178712.71,58938,19.25,73524.3,2.53,1.37,1.37,0,*76
1501178713.88,58939,19.25,73526.5,2.57,1.41,1.41,0,*73
1501178715.12,58940,19.25,73526.3,2.53,1.33,1.37,0,*7D
1501178716.35,58941,19.25,73526.3,2.53,1.33,1.37,0,*7C
1501178717.59,58942,19.25,73530.0,2.53,1.33,1.33,0,*7B
1501178718.83,58943,19.25,73530.0,2.53,1.33,1.33,0,*7A
1501178720.06,58944,19.25,73526.0,2.53,1.37,1.43,0,*7E
1501178721.3,58945,19.25,73526.0,2.53,1.33,1.37,0,*78
1501178722.54,58946,19.25,73526.3,2.53,1.33,1.33,0,*7F
1501178723.77,58947,19.25,73524.0,2.53,1.37,1.33,0,*7A
1501178725.01,58948,19.25,73524.8,2.53,1.37,1.33,0,*75
1501178726.25,58949,19.25,73526.5,2.53,1.37,1.33,0,*74
1501178727.49,58950,19.25,73524.0,2.53,1.37,1.25,0,*7B
1501178728.74,58951,19.25,73524.0,2.51,1.29,1.29,0,*7B
1501178730.0,58952,19.25,73526.5,2.51,1.21,1.29,0,*70
1501178731.26,58953,19.31,73528.3,2.51,1.29,1.29,0,*79
1501178732.52,58954,19.31,73530.5,2.51,1.29,1.21,0,*76
1501178733.78,58955,19.25,73526.5,2.51,1.29,1.29,0,*7F
1501178735.04,58956,19.25,73526.0,2.51,1.29,1.21,0,*74
1501178736.31,58957,19.25,73524.5,2.51,1.29,1.21,0,*75
1501178737.54,58958,19.25,73524.8,2.49,1.29,1.29,0,*7B
1501178738.81,58959,19.25,73524.5,2.51,1.21,1.21,0,*73
1501178740.06,58960,19.25,73526.8,2.51,1.29,1.29,0,*79
1501178741.33,58961,19.25,73524.0,2.51,1.29,1.21,0,*70
1501178742.57,58962,19.25,73524.5,2.49,1.21,1.21,0,*72
1501178743.81,58963,19.25,73526.8,2.49,1.21,1.21,0,*73
1501178745.07,58964,19.25,73520.5,2.51,1.21,1.21,0,*7D
1501178746.3,58965,19.25,73526.0,2.49,1.21,1.29,0,*7D
1501178747.55,58966,19.25,73528.0,2.49,1.21,1.21,0,*76
1501178748.78,58967,19.25,73526.3,2.49,1.29,1.29,0,*77
1501178750.02,58968,19.25,73526.0,2.49,1.21,1.21,0,*78
1501178751.26,58969,19.25,73526.0,2.49,1.29,1.29,0,*79
1501178752.52,58970,19.25,73524.5,2.51,1.29,1.21,0,*70
1501178753.78,58971,19.25,73524.5,2.51,1.21,1.29,0,*71
1501178755.04,58972,19.25,73526.0,2.51,1.29,1.21,0,*72
1501178756.28,58973,19.25,73524.3,2.49,1.21,1.21,0,*72
1501178757.52,58974,19.25,73524.3,2.49,1.29,1.29,0,*75
1501178758.75,58975,19.31,73528.5,2.49,1.29,1.21,0,*7C
1501178759.99,58976,19.25,73526.5,2.49,1.21,1.21,0,*77
1501178761.25,58977,19.25,73526.8,2.47,1.25,1.25,0,*78
1501178762.5,58978,19.25,73526.8,2.47,1.25,1.25,0,*77
1501178763.75,58979,19.25,73526.0,2.47,1.25,1.25,0,*76
1501178765.0,58980,19.25,73524.8,2.47,1.25,1.25,0,*70
1501178766.25,58981,19.25,73524.8,2.47,1.25,1.29,0,*7D
1501178767.5,58982,19.25,73526.0,2.47,1.25,1.25,0,*72
1501178768.76,58983,19.25,73524.3,2.47,1.25,1.25,0,*73
1501178769.98,58984,19.25,73524.3,2.45,1.25,1.25,0,*76
1501178771.24,58985,19.25,73526.3,2.47,1.17,1.25,0,*74
1501178772.49,58986,19.25,73524.3,2.47,1.25,1.25,0,*76
1501178773.74,58987,19.25,73524.3,2.47,1.25,1.17,0,*76
1501178775.0,58988,19.25,73524.5,2.47,1.29,1.25,0,*74
1501178776.24,58989,19.25,73526.5,2.45,1.29,1.25,0,*77
1501178777.46,58990,19.25,73526.0,2.45,1.25,1.17,0,*72
1501178778.69,58991,19.25,73526.8,2.45,1.25,1.25,0,*72
1501178779.94,58992,19.25,73526.0,2.47,1.25,1.25,0,*73
1501178781.2,58993,19.25,73524.3,2.47,1.25,1.25,0,*72
1501178782.43,58994,19.25,73528.3,2.45,1.29,1.25,0,*7B
1501178783.67,58995,19.25,73524.5,2.45,1.29,1.37,0,*79
1501178784.93,58996,19.25,73526.3,2.47,1.37,1.37,0,*77
1501178786.17,58997,19.25,73526.0,2.45,1.37,1.37,0,*74
1501178787.4,58998,19.25,73526.3,2.45,1.37,1.29,0,*74
1501178788.64,58999,19.25,73526.0,2.45,1.37,1.37,0,*7A
1501178789.9,59000,19.25,73526.3,2.47,1.29,1.29,0,*70
1501178791.14,59001,19.25,73524.5,2.45,1.37,1.29,0,*7C
1501178792.37,59002,19.25,73524.3,2.45,1.29,1.29,0,*70
1501178793.61,59003,19.25,73528.0,2.45,1.37,1.29,0,*7E
1501178794.87,59004,19.25,73522.8,2.47,1.37,1.37,0,*74
1501178796.07,59005,19.25,73526.0,2.45,1.37,1.41,0,*76
1501178797.31,59006,19.25,73528.8,2.45,1.37,1.29,0,*7B
1501178798.55,59007,19.25,73526.0,2.45,1.37,1.29,0,*7A
1501178799.78,59008,19.25,73522.0,2.45,1.29,1.37,0,*75
1501178801.02,59009,19.25,73524.5,2.45,1.37,1.29,0,*74
1501178802.25,59010,19.25,73524.5,2.45,1.29,1.29,0,*73
1501178803.49,59011,19.25,73526.5,2.45,1.37,1.29,0,*7D
1501178804.69,59012,19.25,73522.5,2.45,1.41,1.37,0,*70
1501178805.9,59013,19.25,73526.8,2.45,1.37,1.41,0,*71
1501178807.1,59014,19.25,73526.0,2.45,1.41,1.37,0,*76
1501178808.34,59015,19.25,73524.8,2.45,1.37,1.37,0,*76
1501178809.51,59016,19.25,73522.8,2.45,1.41,1.41,0,*75
1501178810.68,59017,19.25,73526.8,2.45,1.41,1.41,0,*74
1501178811.9,59018,19.25,73526.5,2.45,1.51,1.47,0,*7C
1501178813.12,59019,19.25,73524.5,2.45,1.47,1.47,0,*7A
1501178814.35,59020,19.25,73524.0,2.45,1.51,1.51,0,*70
1501178815.54,59021,19.25,73524.8,2.45,1.47,1.41,0,*77
1501178816.74,59022,19.25,73524.5,2.45,1.47,1.41,0,*74
1501178818.0,59023,19.25,73524.3,2.43,1.37,1.43,0,*76
1501178819.26,59024,19.25,73526.3,2.43,1.37,1.43,0,*71
1501178820.46,59025,19.25,73524.3,2.45,1.41,1.47,0,*73
1501178821.63,59026,19.25,73526.8,2.45,1.41,1.41,0,*76
1501178822.82,59027,19.25,73526.0,2.45,1.47,1.41,0,*71
1501178823.99,59028,19.25,73528.0,2.45,1.41,1.41,0,*78
1501178825.2,59029,19.25,73524.8,2.45,1.41,1.37,0,*78
1501178826.36,59030,19.25,73524.5,2.45,1.41,1.41,0,*71
1501178827.56,59031,19.25,73526.0,2.45,1.47,1.41,0,*76
1501178828.75,59032,19.25,73526.0,2.45,1.47,1.41,0,*75
1501178829.95,59033,19.25,73526.8,2.45,1.41,1.47,0,*74
1501178831.19,59034,19.25,73520.3,2.47,1.47,1.47,0,*77
1501178832.42,59035,19.25,73526.8,2.45,1.47,1.47,0,*74
1501178833.67,59036,19.25,73522.8,2.43,1.43,1.37,0,*72
1501178834.92,59037,19.25,73526.5,2.43,1.43,1.43,0,*70
1501178836.15,59038,19.25,73522.0,2.41,1.43,1.37,0,*7E
1501178837.42,59039,19.25,73524.5,2.43,1.37,1.37,0,*7E
1501178838.69,59040,19.25,73522.3,2.43,1.37,1.37,0,*70
1501178839.94,59041,19.25,73524.8,2.43,1.47,1.43,0,*75
1501178841.19,59042,19.25,73524.8,2.43,1.47,1.43,0,*76
1501178842.44,59043,19.25,73524.5,2.43,1.47,1.47,0,*73
1501178843.7,59044,19.25,73526.3,2.43,1.47,1.47,0,*74
1501178844.92,59045,19.25,73524.8,2.45,1.51,1.51,0,*73
1501178846.14,59046,19.25,73526.0,2.45,1.47,1.47,0,*70
1501178847.33,59047,19.25,73526.8,2.45,1.47,1.41,0,*77
1501178848.58,59048,19.25,73524.5,2.47,1.47,1.47,0,*7C
1501178849.8,59049,19.25,73522.0,2.45,1.47,1.47,0,*7F
1501178851.02,59050,19.25,73522.0,2.45,1.47,1.47,0,*77
1501178852.24,59051,19.25,73522.3,2.45,1.47,1.47,0,*76
1501178853.44,59052,19.25,73524.5,2.45,1.41,1.47,0,*73
1501178854.63,59053,19.25,73524.5,2.45,1.47,1.41,0,*72
1501178855.85,59054,19.25,73524.8,2.45,1.51,1.47,0,*74
1501178857.07,59055,19.25,73526.8,2.45,1.51,1.59,0,*7A
1501178858.3,59056,19.25,73526.3,2.45,1.47,1.51,0,*76
1501178859.52,59057,19.25,73524.3,2.45,1.51,1.47,0,*77
1501178860.74,59058,19.25,73522.3,2.45,1.51,1.47,0,*78
1501178861.96,59059,19.25,73524.8,2.45,1.51,1.59,0,*76
1501178863.18,59060,19.25,73524.0,2.45,1.51,1.47,0,*73
1501178864.41,59061,19.25,73526.0,2.45,1.59,1.51,0,*7D
1501178865.63,59062,19.25,73524.8,2.45,1.51,1.51,0,*76
1501178866.85,59063,19.25,73526.3,2.45,1.59,1.51,0,*7F
1501178868.07,59064,19.25,73528.3,2.45,1.59,1.59,0,*70
1501178869.3,59065,19.25,73524.3,2.45,1.63,1.59,0,*78
1501178870.54,59066,19.25,73522.8,2.47,1.63,1.59,0,*79
1501178871.79,59067,19.25,73524.0,2.47,1.59,1.63,0,*78
1501178873.01,59068,19.25,73522.8,2.45,1.71,1.71,0,*7C
1501178874.26,59069,19.25,73524.5,2.47,1.59,1.71,0,*75
1501178875.48,59070,19.25,73524.5,2.45,1.63,1.71,0,*76
1501178876.73,59071,19.25,73524.0,2.47,1.63,1.63,0,*76
1501178877.98,59072,19.25,73522.3,2.47,1.63,1.63,0,*75
1501178879.23,59073,19.25,73522.5,2.47,1.63,1.51,0,*75
1501178880.47,59074,19.25,73524.0,2.47,1.51,1.59,0,*7B
1501178881.72,59075,19.25,73526.5,2.47,1.59,1.51,0,*7A
1501178882.96,59076,19.25,73524.0,2.47,1.59,1.59,0,*71
1501178884.21,59077,19.25,73526.3,2.47,1.59,1.51,0,*78
1501178885.45,59078,19.25,73524.0,2.47,1.59,1.51,0,*77
1501178886.7,59079,19.25,73524.8,2.47,1.59,1.63,0,*77
1501178887.92,59080,19.25,73522.0,2.45,1.63,1.59,0,*73
1501178889.17,59081,19.25,73524.5,2.47,1.63,1.59,0,*70
1501178890.41,59082,19.25,73524.0,2.47,1.59,1.59,0,*7A
1501178891.66,59083,19.25,73524.0,2.47,1.63,1.59,0,*72
1501178892.9,59084,19.25,73524.3,2.47,1.71,1.59,0,*76
1501178894.15,59085,19.25,73524.5,2.47,1.71,1.63,0,*7E
1501178895.4,59086,19.25,73526.3,2.47,1.63,1.63,0,*7E
1501178896.65,59087,19.25,73524.8,2.47,1.63,1.63,0,*7F
1501178897.9,59088,19.25,73522.0,2.47,1.71,1.63,0,*73
1501178899.13,59089,19.25,73522.8,2.45,1.71,1.63,0,*70
1501178900.38,59090,19.25,73524.5,2.47,1.63,1.63,0,*79
1501178901.63,59091,19.25,73522.5,2.47,1.63,1.63,0,*78
1501178902.88,59092,19.25,73524.5,2.47,1.63,1.63,0,*7B
1501178904.13,59093,19.25,73526.8,2.47,1.71,1.63,0,*79
1501178905.37,59094,19.25,73524.0,2.47,1.71,1.71,0,*7D
1501178906.62,59095,19.25,73526.8,2.47,1.71,1.71,0,*7C
1501178907.87,59096,19.25,73524.8,2.47,1.63,1.71,0,*7C
1501178909.07,59097,19.25,73522.3,2.49,1.75,1.67,0,*73
1501178910.25,59098,19.25,73524.0,2.49,1.75,1.75,0,*7F
1501178911.43,59099,19.25,73526.3,2.49,1.75,1.75,0,*7E
1501178912.64,59100,19.25,73526.0,2.51,1.75,1.75,0,*76
1501178913.82,59101,19.25,73528.8,2.49,1.75,1.75,0,*7E
1501178915.04,59102,19.25,73526.8,2.51,1.75,1.67,0,*77
1501178916.22,59103,19.25,73524.8,2.49,1.75,1.75,0,*7C
1501178917.43,59104,19.25,73524.3,2.51,1.75,1.75,0,*72
1501178918.61,59105,19.25,73524.8,2.49,1.75,1.79,0,*76
1501178919.81,59106,19.25,73526.5,2.51,1.75,1.79,0,*7C
1501178920.99,59107,19.25,73524.0,2.49,1.75,1.75,0,*78
1501178922.2,59108,19.25,73520.0,2.51,1.75,1.75,0,*7E
1501178923.4,59109,19.25,73528.5,2.51,1.75,1.75,0,*7F
1501178924.58,59110,19.25,73524.5,2.49,1.75,1.75,0,*7E
1501178925.79,59111,19.25,73524.3,2.51,1.75,1.75,0,*76
1501178926.99,59112,19.25,73526.5,2.51,1.79,1.75,0,*79
1501178928.19,59113,19.25,73524.0,2.51,1.83,1.83,0,*74
1501178929.37,59114,19.25,73524.5,2.53,1.79,1.83,0,*74
1501178930.58,59115,19.25,73520.3,2.53,1.85,1.83,0,*76
1501178931.76,59116,19.25,73524.0,2.53,1.83,1.83,0,*73
1501178932.99,59117,19.25,73526.5,2.57,1.85,1.85,0,*76
1501178934.17,59118,19.25,73528.0,2.53,1.83,1.83,0,*7D
1501178935.38,59119,19.25,73528.8,2.53,1.83,1.85,0,*7A
1501178936.6,59120,19.25,73524.3,2.57,1.85,1.97,0,*71
1501178937.8,59121,19.25,73526.5,2.53,1.89,1.83,0,*7D